Weather History for KCNK - December, 2012

Change the Weather History Date:

Sunday, December 9, 2012

  Actual Average Record
Temperature  
Mean Temperature 27 °F 31 °F  
Max Temperature 41 °F 40 °F 69 °F (1939)
Min Temperature 13 °F 21 °F -11 °F (1919)
Degree Days  
Heating Degree Days 38 34  
Month to date heating degree days 205 294  
Since 1 July heating degree days 1235 1386  
Cooling Degree Days 0 0  
Month to date cooling degree days 0 0  
Year to date cooling degree days 1643 1349  
Moisture  
Dew Point 15 °F    
Average Humidity 66    
Maximum Humidity 92    
Minimum Humidity 39    
Precipitation  
Precipitation 0.00 in 0.03 in 0.86 in (1911)
Month to date precipitation T 0.30  
Year to date precipitation 23.08 27.34  
Snow  
Snow 0.00 in 0.10 in 2.40 in (1961)
Month to date snowfall 0.0 1.1  
Year to date snowfall 5.8 17.5  
Since 1 July snowfall 0.0 3.8  
Snow Depth 0.00 in    
Sea Level Pressure  
Sea Level Pressure 30.07 in    
Wind  
Wind Speed 17 mph (NW)    
Max Wind Speed 32 mph    
Max Gust Speed 40 mph    
Visibility 9 miles    
Events      
T = Trace of Precipitation, MM = Missing Value Source: NWS Daily Summary

Daily Weather History Graph

Daily Weather History Graph

Search for Another Location

Airport or City:

Trip Planner

Search our weather history database for the weather conditions in past years. The results will help you decide how hot, cold, wet, or windy it might be!

Date:

Astronomy

Dec. 09, 2012 Rise Set
Actual Time 7:39 AM CST 5:06 PM CST
Civil Twilight 7:09 AM CST 5:36 PM CST
Nautical Twilight 6:35 AM CST 6:10 PM CST
Astronomical Twilight 6:03 AM CST 6:43 PM CST
Moon 3:14 AM CST (12/9) 2:13 PM CST (12/9)
Length of Visible Light 10h 27m
Length of Day
9h 26m
Waning Crescent, 18% of the Moon is Illuminated
Dec 9
Waning Crescent
Dec 13
New
Dec 19
First Quarter
Dec 28
Full
Jan 4
Last Quarter

Hourly Weather History & Observations

Time (CST) Temp. Windchill Dew Point Humidity Pressure Visibility Wind Dir Wind Speed Gust Speed Precip Events Conditions
12:55 AM 39.9 °F 37.8 °F 37.0 °F 89% 29.87 in 5.0 mi South 3.5 mph - N/A   Overcast
1:55 AM 39.9 °F 36.7 °F 37.0 °F 89% 29.86 in 4.0 mi SSW 4.6 mph - N/A   Overcast
2:53 AM 39.2 °F 37.0 °F 37.4 °F 93% 29.83 in 3.0 mi SW 3.5 mph - N/A   Mostly Cloudy
2:55 AM 39.0 °F 36.8 °F 37.0 °F 93% 29.85 in 3.0 mi SW 3.5 mph - N/A   Mostly Cloudy
3:55 AM 39.0 °F 32.8 °F 36.0 °F 89% 29.86 in 5.0 mi WSW 9.2 mph - N/A   Overcast
4:55 AM 37.9 °F 29.2 °F 30.9 °F 76% 29.89 in 10.0 mi NNW 15.0 mph 20.7 mph N/A   Overcast
5:55 AM 37.0 °F 29.3 °F 28.9 °F 73% 29.93 in 10.0 mi NW 11.5 mph - N/A   Overcast
6:55 AM 37.9 °F 30.0 °F 28.0 °F 68% 29.94 in 10.0 mi NW 12.7 mph - N/A   Overcast
7:55 AM 34.0 °F 22.1 °F 21.9 °F 61% 29.97 in 10.0 mi NNW 21.9 mph 33.4 mph N/A   Overcast
8:55 AM 28.9 °F 14.0 °F 14.0 °F 54% 30.03 in 10.0 mi NW 27.6 mph 36.8 mph N/A   Overcast
9:55 AM 26.1 °F 10.7 °F 10.0 °F 51% 30.07 in 10.0 mi NW 25.3 mph 31.1 mph N/A   Mostly Cloudy
10:55 AM 25.0 °F 9.9 °F 9.0 °F 51% 30.07 in 10.0 mi NNW 23.0 mph 31.1 mph N/A   Partly Cloudy
11:55 AM 24.1 °F 11.0 °F 8.1 °F 51% 30.10 in 10.0 mi NW 16.1 mph 26.5 mph N/A   Partly Cloudy
12:55 PM 26.1 °F 13.6 °F 8.1 °F 47% 30.10 in 10.0 mi NW 16.1 mph 27.6 mph N/A   Clear
1:55 PM 26.1 °F 12.0 °F 7.0 °F 44% 30.09 in 10.0 mi NNW 20.7 mph 31.1 mph N/A   Clear
2:55 PM 28.0 °F 14.9 °F 7.0 °F 41% 30.10 in 10.0 mi NW 19.6 mph 25.3 mph N/A   Clear
3:55 PM 26.1 °F 11.0 °F 7.0 °F 44% 30.13 in 10.0 mi NW 24.2 mph 28.8 mph N/A   Clear
4:55 PM 23.0 °F 7.2 °F 6.1 °F 48% 30.14 in 10.0 mi NW 23.0 mph 29.9 mph N/A   Clear
5:55 PM 23.0 °F 9.2 °F 6.1 °F 48% 30.17 in 10.0 mi NNW 17.3 mph 31.1 mph N/A   Overcast
6:55 PM 19.9 °F 1.8 °F 6.1 °F 55% 30.20 in 10.0 mi NNW 27.6 mph 35.7 mph N/A   Overcast
7:24 PM 19.4 °F 2.8 °F 6.8 °F 58% 30.16 in 10.0 mi NNW 21.9 mph 32.2 mph N/A   Overcast
7:55 PM 19.0 °F 3.6 °F 7.0 °F 59% 30.20 in 10.0 mi NNW 18.4 mph 25.3 mph N/A   Mostly Cloudy
8:16 PM 19.4 °F 4.1 °F 6.8 °F 58% 30.17 in 10.0 mi NNW 18.4 mph 29.9 mph N/A   Mostly Cloudy
8:55 PM 19.9 °F 3.5 °F 7.0 °F 57% 30.23 in 10.0 mi NNW 21.9 mph 31.1 mph N/A   Overcast
9:55 PM 17.1 °F -0.3 °F 5.0 °F 59% 30.26 in 10.0 mi NNW 21.9 mph 29.9 mph N/A   Scattered Clouds
10:55 PM 15.1 °F -1.6 °F 3.0 °F 59% 30.25 in 10.0 mi NW 18.4 mph - N/A   Clear
11:55 PM 12.9 °F -2.8 °F 1.9 °F 62% 30.25 in 10.0 mi NW 15.0 mph - N/A   Clear